This demonstration page uses our WeatherBlox Daily Observations layout. Learn more.

39.08367, -84.50855

Hourly Observations for August 8, 2019

Temp ( °F °C ) Dew Point ( °F °C ) Humidity (%) Winds ( mph kmh ) Pressure ( in mb ) Visibility ( mi km ) Precip ( " mm )
12:53 am 00:53 Clear 66 18.9 64 17.8 93 93 Calm 29.85 1011 10 16.09344 0 0
1:53 am 01:53 Mostly Clear 66 18.9 64 17.8 93 93 Calm 29.85 1011 10 16.09344 0 0
2:53 am 02:53 Clear 64 17.8 64 17.8 100 100 Calm 29.85 1011 10 16.09344 0 0
3:53 am 03:53 Clear 64 17.8 64 17.8 100 100 Calm 29.83 1010 9 14.484096 0 0
4:53 am 04:53 Clear with Mist and Fog 64 17.8 64 17.8 100 100 Calm 29.83 1010 2.5 4.02336 0 0
5:06 am 05:06 Clear 64 17.8 63 17.2 96 96 Calm 29.85 1011 9 14.484096 0 0
5:53 am 05:53 Clear 64 17.8 63 17.2 96 96 Calm 29.85 1011 10 16.09344 0 0
6:23 am 06:23 Mostly Clear 64 17.8 63 17.2 96 96 Calm 29.88 1012 7 11.265408 0 0
6:53 am 06:53 Sunny 64 17.8 63 17.2 96 96 Calm 29.85 1011 10 16.09344 0 0
7:53 am 07:53 Sunny 66 18.9 65 18.3 96 96 Calm 29.85 1011 10 16.09344 0 0
8:53 am 08:53 Sunny 73 22.8 68 20 84 84 S 5 7 29.85 1011 10 16.09344 0 0
9:53 am 09:53 Sunny 78 25.6 68 20 71 71 WSW 8 13 29.88 1012 10 16.09344 0 0
10:53 am 10:53 Mostly Sunny 81 27.2 67 19.4 62 62 VRB 7 11 29.85 1011 10 16.09344 0 0
11:53 am 11:53 Partly Cloudy 83 28.3 67 19.4 59 59 W 10 17 29.85 1011 10 16.09344 0 0
12:53 pm 12:53 Partly Cloudy 84 28.9 68 20 59 59 W 13 20 29.85 1011 10 16.09344 0 0
1:53 pm 13:53 Partly Cloudy 87 30.6 67 19.4 51 51 WSW 9 15 29.85 1011 10 16.09344 0 0
2:53 pm 14:53 Partly Cloudy 88 31.1 66 18.9 48 48 WSW 9 15 29.85 1011 10 16.09344 0 0
3:53 pm 15:53 Mostly Cloudy 86 30 66 18.9 51 51 WSW 13 20 29.83 1010 10 16.09344 0 0
4:53 pm 16:53 Mostly Cloudy 86 30 66 18.9 51 51 VRB 7 11 29.83 1010 10 16.09344 0 0
5:53 pm 17:53 Partly Cloudy 88 31.1 67 19.4 50 50 WSW 10 17 29.83 1010 10 16.09344 0 0
6:53 pm 18:53 Mostly Cloudy 84 28.9 66 18.9 55 55 W 9 15 29.83 1010 10 16.09344 0 0
7:53 pm 19:53 Mostly Cloudy 82 27.8 67 19.4 60 60 WSW 8 13 29.83 1010 10 16.09344 0 0
8:53 pm 20:53 Partly Cloudy 81 27.2 67 19.4 62 62 WSW 7 11 29.83 1010 10 16.09344 0 0
9:53 pm 21:53 Partly Cloudy 79 26.1 68 20 69 69 W 6 9 29.85 1011 10 16.09344 0.001 0.001
10:53 pm 22:53 Partly Cloudy 77 25 65 18.3 66 66 VRB 5 7 29.85 1011 10 16.09344 0 0
11:53 pm 23:53 Clear 74 23.3 66 18.9 76 76 W 5 7 29.85 1011 10 16.09344 0 0

Powered by AerisWeather